HOGFORS Weather Reports


Display with metric or nautical units.
time (UTC)temp
F
wind
direction
speed
MPH
gust
MPH
rain 1hr
in
rain 24hr
in
rain mn
in
humidity
%
barometer
mb
20221001121603 51 148 8.0 0.0 0.00 0.00 0.00 64 1001.4
20221001120100 52 163 8.0 0.0 0.00 0.00 0.00 63 1001.4
20221001114604 51 169 8.0 0.0 0.00 0.00 0.00 62 1001.4
20221001113057 51 209 4.0 0.0 0.00 0.00 0.00 60 1001.5
20221001111549 50 187 5.0 0.0 0.00 0.00 0.00 57 1001.8
20221001110048 50 141 5.0 0.0 0.00 0.00 0.00 54 1002.0
20221001104545 49 148 4.0 0.0 0.00 0.00 0.00 55 1002.0
20221001103046 50 182 4.0 0.0 0.00 0.00 0.00 56 1002.1
20221001101543 50 229 6.0 0.0 0.00 0.00 0.00 53 1002.2
20221001100039 49 183 5.0 0.0 0.00 0.00 0.00 49 1002.2
20221001094547 49 173 5.0 0.0 0.00 0.00 0.00 51 1002.4
20221001093050 49 194 4.0 0.0 0.00 0.00 0.00 46 1002.6
20221001091532 48 163 7.0 0.0 0.00 0.00 0.00 44 1002.5
20221001044516 48 201 5.0 0.0 0.00 0.00 0.00 38 1003.3
20221001043010 48 173 6.0 0.0 0.00 0.00 0.00 38 1003.3
20221001041509 48 209 6.0 0.0 0.00 0.00 0.00 38 1003.4
20221001040007 48 187 6.0 0.0 0.00 0.00 0.00 38 1003.3
20221001034515 48 188 6.0 0.0 0.00 0.00 0.00 38 1003.4
20221001033005 48 194 5.0 0.0 0.00 0.00 0.00 38 1003.5
20221001031505 47 175 6.0 0.0 0.00 0.00 0.00 38 1003.5
20221001030001 47 200 5.0 0.0 0.00 0.00 0.00 38 1003.5
20221001024607 47 138 5.0 0.0 0.00 0.00 0.00 38 1003.6
20221001023058 47 192 5.0 0.0 0.00 0.00 0.00 38 1003.6
20221001021556 47 200 4.0 0.0 0.00 0.00 0.00 38 1003.7
20221001020058 47 190 4.0 0.0 0.00 0.00 0.00 38 1003.8
20221001014551 47 167 3.0 0.0 0.00 0.00 0.00 38 1003.7
20221001013050 47 186 4.0 0.0 0.00 0.00 0.00 38 1003.9
20221001011600 47 197 3.0 0.0 0.00 0.00 0.00 38 1003.9
20221001010046 47 203 4.0 0.0 0.00 0.00 0.00 38 1004.1
20221001004546 47 190 3.0 0.0 0.00 0.00 0.00 38 1004.2
20221001003048 47 192 4.0 0.0 0.00 0.00 0.00 39 1004.4
20221001001548 47 150 3.0 0.0 0.00 0.00 0.00 39 1004.5
20221001000043 47 165 2.0 0.0 0.00 0.00 0.00 39 1004.7
20220930234539 47 194 3.0 0.0 0.00 0.00 0.00 39 1004.8
20220930233034 46 172 2.0 0.0 0.00 0.00 0.00 39 1005.0
20220930231532 46 236 1.0 0.0 0.00 0.00 0.00 39 1005.1
20220930230033 46 172 3.0 0.0 0.00 0.00 0.00 40 1005.1
20220930224528 46 194 2.0 0.0 0.00 0.00 0.00 40 1005.2
20220930223026 46 155 3.0 0.0 0.00 0.00 0.00 41 1005.6
20220930221532 46 142 2.0 0.0 0.00 0.00 0.00 44 1005.7
20220930214517 46 149 3.0 0.0 0.00 0.00 0.00 51 1005.9
20220930213016 46 164 3.0 0.0 0.00 0.00 0.00 53 1006.0
20220930211520 46 165 4.0 0.0 0.00 0.00 0.00 52 1006.1
20220930204516 45 144 0.0 0.0 0.00 0.00 0.00 50 1006.2
20220930203013 45 142 0.0 0.0 0.00 0.00 0.00 51 1006.4
20220930201512 45 173 0.0 0.0 0.00 0.00 0.00 52 1006.5
20220930200008 45 173 1.0 0.0 0.00 0.00 0.00 52 1006.6
20220930194508 45 157 1.0 0.0 0.00 0.00 0.00 53 1006.8
20220930193006 45 123 1.0 0.0 0.00 0.00 0.00 55 1006.9
20220930191505 45 155 2.0 0.0 0.00 0.00 0.00 55 1007.1
20220930190012 45 162 3.0 0.0 0.00 0.00 0.00 55 1007.1
20220930184509 45 168 1.0 0.0 0.00 0.00 0.00 55 1007.1
20220930183003 45 127 1.0 0.0 0.00 0.00 0.00 53 1007.3
20220930181559 44 180 1.0 0.0 0.00 0.00 0.00 51 1007.4
20220930180104 44 159 0.0 0.0 0.00 0.00 0.00 54 1007.5
20220930174602 44 159 0.0 0.0 0.00 0.00 0.00 57 1007.6
20220930173059 44 159 0.0 0.0 0.00 0.00 0.00 60 1007.6
20220930171609 45 153 0.0 0.0 0.00 0.00 0.00 61 1007.8
20220930170056 45 159 0.0 0.0 0.00 0.00 0.00 62 1007.8
20220930164555 46 165 0.0 0.0 0.00 0.00 0.00 62 1007.7
20220930163100 46 155 0.0 0.0 0.00 0.00 0.00 64 1007.7
20220930161550 0 0.0 0.0 0.00 0.00 0.00 1007.7
20220930160051 47 157 2.0 0.0 0.00 0.00 0.00 65 1007.7
20220930154607 48 159 3.0 0.0 0.00 0.00 0.00 65 1007.7
20220930153048 48 168 2.0 0.0 0.00 0.00 0.00 65 1007.6
20220930151647 48 160 3.0 0.0 0.00 0.00 0.00 64 1007.7
20220930150046 48 167 3.0 0.0 0.00 0.00 0.00 65 1007.8
20220930144546 48 156 4.0 0.0 0.00 0.00 0.00 68 1007.9
20220930143045 48 144 4.0 0.0 0.00 0.00 0.00 65 1008.0
20220930141548 49 152 4.0 0.0 0.00 0.00 0.00 65 1008.1
20220930140046 49 156 3.0 0.0 0.00 0.00 0.00 65 1008.2
20220930134545 49 173 5.0 0.0 0.00 0.00 0.00 65 1008.3
20220930133052 49 178 8.0 0.0 0.00 0.00 0.00 65 1008.5
20220930131547 50 149 5.0 0.0 0.00 0.00 0.00 64 1008.3
20220930130041 49 158 4.0 0.0 0.00 0.00 0.00 64 1008.3
20220930124550 50 144 4.0 0.0 0.00 0.00 0.00 63 1008.3
20220930123045 50 150 5.0 0.0 0.00 0.00 0.00 62 1008.3